EW2875 Weather Reports


Display with metric or nautical units.
time (UTC)temp
F
wind
direction
speed
MPH
gust
MPH
rain 1hr
in
rain 24hr
in
rain mn
in
humidity
%
barometer
mb
20260510230004 39 346 13.0 22.0 0.02 0.35 0.00 93 1011.4
20260510224504 38 348 15.0 23.0 0.02 0.36 0.35 93 1011.5
20260510223004 38 356 19.0 29.0 0.01 0.41 0.34 92 1011.4
20260510221504 39 349 19.0 27.0 0.00 0.41 0.33 91 1011.3
20260510220004 39 343 18.0 27.0 0.00 0.41 0.33 91 1011.3
20260510214504 39 351 14.0 20.0 0.00 0.41 0.33 92 1011.3
20260510213004 40 347 17.0 26.0 0.00 0.41 0.33 90 1011.2
20260510211504 40 348 16.0 24.0 0.00 0.41 0.33 89 1011.0
20260510210025 39 352 19.0 29.0 0.00 0.41 0.33 90 1011.1
20260510204525 39 350 18.0 25.0 0.00 0.41 0.33 91 1011.0
20260510203004 39 348 22.0 32.0 0.00 0.41 0.33 93 1011.1
20260510201504 40 337 16.0 24.0 0.00 0.41 0.33 92 1010.7
20260510200004 40 337 19.0 30.0 0.00 0.41 0.33 92 1010.5
20260510194525 41 331 22.0 36.0 0.00 0.41 0.33 93 1010.3
20260510193004 42 321 19.0 31.0 0.05 0.41 0.33 93 1009.9
20260510191504 42 309 20.0 31.0 0.07 0.41 0.33 93 1009.5
20260510190004 43 303 21.0 31.0 0.09 0.41 0.33 94 1009.1
20260510184525 44 295 20.0 43.0 0.12 0.41 0.33 95 1008.8
20260510183025 44 271 12.0 31.0 0.10 0.36 0.29 96 1008.4
20260510181504 44 268 9.0 25.0 0.11 0.34 0.27 96 1008.4
20260510180004 45 269 5.0 18.0 0.11 0.32 0.25 95 1008.7
20260510174524 45 268 9.0 26.0 0.09 0.30 0.22 95 1008.9
20260510173004 45 265 7.0 21.0 0.07 0.27 0.19 94 1009.1
20260510171504 45 265 6.0 21.0 0.07 0.24 0.16 94 1009.1
20260510170004 46 265 7.0 20.0 0.06 0.22 0.14 94 1009.5
20260510164504 46 264 8.0 22.0 0.06 0.21 0.13 94 1009.9
20260510163003 46 266 6.0 18.0 0.06 0.20 0.12 93 1010.4
20260510161504 46 264 7.0 20.0 0.05 0.17 0.09 92 1010.7
20260510160004 46 268 6.0 21.0 0.05 0.16 0.08 91 1011.1
20260510154504 46 269 6.0 18.0 0.05 0.15 0.07 90 1011.4
20260510153004 46 272 3.0 12.0 0.04 0.14 0.06 91 1011.8
20260510151503 47 272 5.0 18.0 0.03 0.12 0.04 89 1012.2
20260510150004 48 267 6.0 18.0 0.02 0.11 0.03 86 1012.6
20260510144503 49 261 6.0 19.0 0.01 0.10 0.02 83 1012.8
20260510143003 49 257 6.0 20.0 0.01 0.10 0.02 81 1013.2
20260510141503 49 257 10.0 21.0 0.00 0.09 0.01 79 1013.5
20260510140024 49 266 5.0 16.0 0.00 0.09 0.01 79 1013.7
20260510134503 49 265 6.0 15.0 0.00 0.09 0.01 77 1014.1
20260510133025 49 263 7.0 19.0 0.00 0.09 0.01 74 1014.4
20260510131504 49 268 7.0 19.0 0.00 0.09 0.01 74 1014.7
20260510130024 50 271 5.0 16.0 0.00 0.09 0.01 74 1015.1
20260510124503 50 282 4.0 11.0 0.00 0.09 0.01 73 1015.3
20260510123004 51 282 8.0 15.0 0.00 0.09 0.01 71 1015.5
20260510121503 52 278 6.0 18.0 0.00 0.09 0.01 70 1015.8
20260510120003 52 283 8.0 19.0 0.00 0.09 0.01 70 1016.1
20260510114503 52 273 7.0 16.0 0.00 0.09 0.01 69 1016.4
20260510113003 52 293 8.0 19.0 0.00 0.09 0.01 71 1016.4
20260510111503 52 298 12.0 23.0 0.00 0.09 0.01 69 1016.7
20260510110004 51 297 11.0 21.0 0.00 0.09 0.01 70 1017.2
20260510104503 49 296 14.0 25.0 0.00 0.09 0.01 72 1017.5
20260510103003 49 295 14.0 23.0 0.00 0.09 0.01 74 1017.9
20260510101503 48 293 16.0 24.0 0.00 0.09 0.01 78 1018.1
20260510100003 47 291 12.0 23.0 0.00 0.09 0.01 80 1018.2
20260510094503 46 283 7.0 16.0 0.00 0.09 0.01 82 1018.4
20260510093003 45 286 7.0 14.0 0.00 0.09 0.01 82 1018.6
20260510091524 45 277 8.0 18.0 0.00 0.09 0.01 82 1018.8
20260510090003 45 277 6.0 16.0 0.00 0.09 0.01 87 1019.0
20260510084503 43 281 7.0 15.0 0.00 0.09 0.01 85 1019.2
20260510083003 42 278 6.0 15.0 0.00 0.09 0.01 86 1019.6
20260510081503 42 273 4.0 13.0 0.00 0.09 0.01 88 1019.7
20260510080003 41 270 3.0 14.0 0.00 0.09 0.01 85 1019.9
20260510074503 42 251 3.0 9.0 0.00 0.09 0.01 86 1020.0
20260510073003 41 244 10.0 16.0 0.00 0.09 0.01 87 1020.2
20260510071503 40 245 9.0 13.0 0.00 0.09 0.01 88 1020.3
20260510070003 39 237 8.0 14.0 0.00 0.09 0.01 89 1020.3
20260510064503 39 238 6.0 12.0 0.00 0.09 0.01 89 1020.4
20260510063003 39 240 7.0 12.0 0.00 0.09 0.01 89 1020.5
20260510061503 38 239 10.0 15.0 0.00 0.09 0.01 89 1020.6
20260510060003 38 238 9.0 14.0 0.00 0.09 0.01 90 1020.6
20260510054503 37 234 8.0 12.0 0.00 0.09 0.01 89 1020.8
20260510053004 37 234 10.0 14.0 0.00 0.09 0.01 89 1020.7
20260510051503 37 237 8.0 14.0 0.00 0.09 0.01 90 1020.9
20260510050004 37 240 8.0 12.0 0.00 0.09 0.01 92 1020.9
20260510044503 36 245 8.0 11.0 0.00 0.09 0.01 92 1021.1
20260510043003 36 252 8.0 11.0 0.00 0.09 0.01 93 1021.2
20260510041503 36 255 6.0 10.0 0.00 0.09 0.01 93 1021.4
20260510040003 35 251 8.0 12.0 0.00 0.09 0.01 94 1021.4
20260510034503 34 250 7.0 11.0 0.00 0.09 0.01 94 1021.6
20260510033003 34 256 5.0 8.0 0.00 0.09 0.01 94 1021.6
20260510031524 34 256 5.0 12.0 0.00 0.09 0.01 93 1021.6
20260510030003 35 256 8.0 12.0 0.00 0.09 0.01 94 1021.8
20260510024503 35 263 3.0 9.0 0.00 0.09 0.01 94 1022.0
20260510023003 36 262 1.0 4.0 0.00 0.09 0.01 94 1022.0
20260510021503 36 261 3.0 9.0 0.00 0.09 0.01 94 1022.1
20260510020005 36 258 3.0 9.0 0.00 0.09 0.01 94 1022.3
20260510014526 36 249 9.0 15.0 0.00 0.09 0.01 94 1022.2
20260510013005 36 241 11.0 15.0 0.00 0.09 0.01 94 1022.2
20260510011526 36 237 9.0 15.0 0.00 0.09 0.01 93 1022.4
20260510010005 37 225 8.0 12.0 0.00 0.09 0.01 95 1022.5
20260510004504 36 215 9.0 13.0 0.00 0.09 0.01 95 1022.8
20260510003005 36 211 9.0 12.0 0.00 0.09 0.01 95 1023.0
20260510001505 36 218 7.0 9.0 0.01 0.09 0.01 94 1023.2
20260510000004 36 227 2.0 5.0 0.01 0.09 0.01 95 1023.4
20260509234505 36 226 3.0 7.0 0.02 0.09 0.01 96 1023.5
20260509233004 35 220 5.0 10.0 0.08 0.09 0.01 94 1023.4
20260509231505 35 204 8.0 10.0 0.08 0.08 0.00 94 1023.6